This demonstration page uses our WeatherBlox Daily Observations layout. Learn more.

Left ArrowRight Arrow

38.89511, -77.03637

Hourly Observations for July 25, 2018

Temp ( °F °C ) Dew Point ( °F °C ) Humidity (%) Winds ( mph kmh ) Pressure ( in mb ) Visibility ( mi km ) Precip ( " mm )
12:52 am 00:52 Cloudy 76 24.4 72 22.2 88 88 S 9 15 29.98 1015 10 16 0.00 0.00
1:18 am 01:18 Partly Cloudy 76 24.4 72 22.2 88 88 S 8 13 29.97 1015 10 16 0.00 0.00
1:26 am 01:26 Mostly Cloudy 76 24.4 72 22.2 88 88 S 8 13 29.97 1015 10 16 0.00 0.00
1:52 am 01:52 Cloudy 76 24.4 72 22.2 88 88 S 7 11 29.97 1015 10 16 0.00 0.00
2:05 am 02:05 Cloudy 76 24.4 72 22.2 88 88 S 8 13 29.97 1015 10 16 0.00 0.00
2:29 am 02:29 Cloudy 75 23.9 72 22.2 90 90 S 8 13 29.97 1015 10 16 0.00 0.00
2:52 am 02:52 Cloudy 75 23.9 72 22.2 90 90 S 7 11 29.97 1015 10 16 0.00 0.00
2:55 am 02:55 Cloudy 75 23.9 72 22.2 90 90 S 8 13 29.97 1015 10 16 0.00 0.00
3:30 am 03:30 Cloudy 76 24.4 71 21.7 85 85 S 10 17 29.97 1015 10 16 0.00 0.00
3:52 am 03:52 Cloudy 76 24.4 71 21.7 85 85 S 9 15 29.96 1015 10 16 0.00 0.00
4:36 am 04:36 Cloudy 76 24.4 71 21.7 85 85 S 10 17 29.97 1015 10 16 0.00 0.00
4:44 am 04:44 Cloudy 75 23.9 71 21.7 88 88 S 12 19 29.97 1015 10 16 0.00 0.00
4:52 am 04:52 Cloudy with Light Rain 76 24.4 71 21.7 85 85 S 13 20 29.96 1014 10 16 0.00 0.03
5:20 am 05:20 Cloudy 75 23.9 71 21.7 88 88 S 9 15 29.94 1014 10 16 0.00 0.03
5:52 am 05:52 Mostly Cloudy 75 23.9 71 21.7 88 88 S 8 13 29.95 1014 10 16 0.00 0.03
5:56 am 05:56 Cloudy 75 23.9 71 21.7 88 88 S 8 13 29.94 1014 10 16 0.00 0.00
6:52 am 06:52 Cloudy 75 23.9 71 21.7 88 88 S 8 13 29.95 1014 10 16 0.00 0.00
7:52 am 07:52 Cloudy 76 24.4 71 21.7 85 85 S 10 17 29.95 1014 10 16 0.00 0.00
8:52 am 08:52 Cloudy 77 25 72 22.2 85 85 S 8 13 29.95 1014 10 16 0.00 0.00
9:52 am 09:52 Cloudy 77 25 71 21.6 81 81 SW 6 9 29.96 1015 10 16 0.00 0.00
10:52 am 10:52 Cloudy 78 25.6 72 22.2 82 82 SW 5 7 29.96 1015 10 16 0.00 0.00
11:52 am 11:52 Cloudy 80 26.6 73 22.7 79 79 SSW 6 9 29.95 1014 10 16 0.00 0.00
12:52 pm 12:52 Cloudy 82 27.7 73 22.7 74 74 S 8 13 29.94 1014 10 16 0.00 0.00
1:52 pm 13:52 Cloudy 86 30 73 22.7 65 65 SSW 6 9 29.91 1013 10 16 0.00 0.00
2:26 pm 14:26 Cloudy 81 27.2 72 22.2 74 74 S 8 13 29.88 1012 10 16 0.00 0.00
2:52 pm 14:52 Cloudy 82 27.8 72 22.2 72 72 S 8 13 29.89 1012 10 16 0.00 0.00
3:52 pm 15:52 Mostly Cloudy 83 28.3 72 22.2 70 70 SSE 7 11 29.88 1012 10 16 0.00 0.00
3:55 pm 15:55 Mostly Cloudy 83 28.3 72 22.2 70 70 SSE 6 9 29.85 1011 10 16 0.00 0.00
3:59 pm 15:59 Mostly Cloudy 83 28.3 72 22.2 70 70 SSE 8 13 29.85 1011 10 16 0.00 0.00
4:50 pm 16:50 Mostly Cloudy 81 27 72 22 74 74 SSE 16 26 29.85 1011 10 16 0.00 0.00
4:52 pm 16:52 Mostly Cloudy 81 27.2 71 21.7 72 72 SSE 13 20 29.85 1011 10 16 0.00 0.00
4:58 pm 16:58 Mostly Cloudy with Light Rain 79 26.1 71 21.7 77 77 SE 14 22 29.85 1011 8 13 0.00 0.03
5:04 pm 17:04 Cloudy with Heavy Rain 78 25.6 72 22.2 82 82 E 8 13 29.85 1011 4 6 0.09 2.29
5:43 pm 17:43 Cloudy with Nearby Thunderstorms 78 25.6 68 20 71 71 ESE 7 11 29.85 1011 8 13 0.15 3.81
5:52 pm 17:52 Cloudy with Nearby Thunderstorms 78 25.6 70 21.1 76 76 SSE 9 15 29.85 1011 10 16 0.15 3.81
6:23 pm 18:23 Mostly Cloudy with Nearby Thunderstorms 78 25.6 70 21.1 76 76 SSE 8 13 29.85 1011 10 16 0.00 0.03
6:25 pm 18:25 Mostly Cloudy with Nearby Thunderstorms 78 25.6 70 21.1 76 76 SSE 7 11 29.85 1011 10 16 0.00 0.03
6:36 pm 18:36 Cloudy with Thunderstorms 78 25.6 70 21.1 76 76 SSE 3 6 29.85 1011 10 16 0.00 0.03
6:52 pm 18:52 Cloudy with Thunderstorms 78 25.6 70 21.1 76 76 S 3 6 29.88 1012 10 16 0.01 0.25
7:04 pm 19:04 Cloudy 78 25.6 70 21.1 76 76 WNW 7 11 29.88 1012 10 16 0.00 0.00
7:06 pm 19:06 Cloudy 77 25 71 21.7 82 82 NW 7 11 29.88 1012 10 16 0.00 0.00
7:19 pm 19:19 Cloudy with Heavy Rain 76 24.4 71 21.7 85 85 WSW 5 7 29.88 1012 1 2 0.01 0.25
7:21 pm 19:21 Cloudy with Heavy Rain 75 23.9 71 21.7 88 88 WNW 5 7 29.88 1012 1 1 0.07 1.78
7:29 pm 19:29 Cloudy with Heavy Rain 75 23.9 71 21.7 88 88 W 7 11 29.88 1012 1 1 0.26 6.60
7:31 pm 19:31 Cloudy with Heavy Rain 75 23.9 71 21.7 88 88 W 6 9 29.88 1012 1 2 0.28 7.11
7:36 pm 19:36 Cloudy with Strong Thunderstorms 75 23.9 71 21.7 88 88 W 7 11 29.88 1012 2 3 0.32 8.13
7:38 pm 19:38 Cloudy with Strong Thunderstorms 75 23.9 71 21.7 88 88 WNW 5 7 29.88 1012 2 3 0.33 8.38
7:44 pm 19:44 Cloudy with Thunderstorms 75 23.9 71 21.7 88 88 N 3 6 29.88 1012 3 5 0.35 8.89
7:52 pm 19:52 Cloudy with Thunderstorms 74 23.3 71 21.7 91 91 N 5 7 29.88 1012 3 5 0.38 9.65
8:01 pm 20:01 Cloudy with Rain 74 23.3 71 21.7 91 91 N 5 7 29.88 1012 4 6 0.03 0.76
8:52 pm 20:52 Mostly Cloudy with Light Rain 75 23.9 71 21.7 88 88 ENE 3 6 29.88 1012 10 16 0.09 2.29
9:52 pm 21:52 Mostly Cloudy with Light Rain 75 23.9 71 21.7 88 88 Calm 29.88 1012 10 16 0.01 0.25
10:04 pm 22:04 Mostly Cloudy with Light Rain 75 23.9 71 21.7 88 88 NE 5 7 29.88 1012 10 16 0.01 0.25
10:07 pm 22:07 Mostly Cloudy with Light Rain 75 23.9 71 21.7 88 88 NE 6 9 29.88 1012 10 16 0.01 0.25
10:52 pm 22:52 Cloudy 75 23.9 71 21.7 88 88 N 5 7 29.88 1012 10 16 0.03 0.76
10:57 pm 22:57 Cloudy 75 23.9 71 21.7 88 88 NNE 5 7 29.88 1012 10 16 0.00 0.00
11:28 pm 23:28 Cloudy 74 23.3 71 21.7 91 91 ENE 5 7 29.88 1012 10 16 0.00 0.00
11:52 pm 23:52 Cloudy 74 23.3 71 21.7 91 91 E 3 6 29.88 1012 10 16 0.00 0.00
11:59 pm 23:59 Cloudy 74 23.3 71 21.7 91 91 E 3 6 29.88 1012 10 16 0.00 0.00

Powered by AerisWeather